COSMOS 1275 DEB, 13467

Orbit data source: Space-Track

COSMOS 1275 DEB, 13467 is space debris in LEO originally from a launch on Thu, 04 Jun 1981 UTC launched from the Plesetsk Missile And Space Complex (PKMTR). Debris objects in space refer to the collection of defunct objects orbiting the Earth. Examples of debris include non-operational satellites, rocket bodies, and fragments generated from explosions, collisions, or faulty payload assembly.

Loading next visibility...
Identifier
13467, 1981-053FP
Orbit
LEO
Country
Flag of CISCIS
Related business
Manufacturer
Unknown
Mission
Spacecraft
Bus & Motor
Unknown
Mass
Unknown
Launch date (UTC)
1981-06-04 (45 years ago)
Launch vehicle
Unknown
Launch site
Plesetsk Missile And Space Complex (PKMTR)
Object type
Payload
Rocket body
Debris
Shape & HBR
Unknown shape, 0.1 m
Radar Cross Section
Small (<0.1 m²)

Expand to show TLE details & history
Last TLE update: 4 hours ago

TLE from 4 hours ago
0 COSMOS 1275 DEB
1 13467U 81053FP  26119.87934619  .00008220  00000-0  18131-2 0  9992
2 13467  82.9383 267.8171 0015524  68.2812  93.3075 14.57199179282183
Epoch: 2026-04-29T21:06Z
TLE epoch observation values (Epoch: 2026-04-29T21:06:15.510Z)
Latitude
18.08285°
Longitude
-88.8872°
Altitude
705.338 km
Speed
7.504 km/s
True Right ascension
05h 42m 02s
True Declination
17° 58' 51"
Sunlit
Object was in daylight at epoch
Visualization orbit readout
Latitude
Unknown
Longitude
Unknown
Altitude
Unknown
Speed
Unknown
Apparent Right ascension
Unknown
Apparent Declination
Unknown
Sunlit
N/A
Visualization observer readout
Local Sidereal Time
08:43:00
Azimuth
Unknown
Elevation
Unknown
Doppler factor
Unknown
Orbital elements
Apogee altitude
710.255 km
Perigee altitude
688.281 km
Semi-major axis
7,077.405 km
Eccentricity
0.00155
Inclination
82.9383°
RAAN
267.8171°
Arg. of periapsis
68.2812°
True anomaly
93.48508°
Mean anomaly
93.3075°
Eccentric anomaly
93.39629°
Mean motion
3.64529 °/min
Orbital period
98.76 mins
BSTAR
0.0018131
Loading maneuver chart data...
Computing Atmospheric mass density...
Loading historical data...
Loading historical data...
Loading historical data...
Loading historical data...
Loading historical data...
Loading historical data...
Loading historical data...

Documentation

Showing up to 5 results
|